[[{"header":{"parameterUnit":"m.s-1","parameterCategory":1,"la1":30.2991,"la2":30.254,"lo1":-89.0895,"lo2":-89.0444,"dy":0.0017,"dx":0.0017,"nx":28,"ny":28,"refTime":"2023-09-25T03:00:00:Z","depth":0,"parameterNumber":2,"parameterNumberName":"U-component_of_WINDS"},"data":[0,0,0,0,0,0,0,0,0,0,0,0,0,0,0,0,0,0,0,0,0,0,0,0,0,0,0,0,0,0,0,0,0,0,0,0,0,0,0,0,0,0,0,0,0,0,0,0,0,0,0,0,0,0,0,0,0,0,-1.0064,-1.0063,0,-0.9949,-0.9947,-0.9946,-0.9891,-0.9891,-0.9891,-0.9891,-0.9769,-0.9765,-0.9762,0,0,0,0,0,0,0,0,0,0,0,0,0,-1.0233,-1.023,-1.0064,-1.0063,-1.0061,-0.9949,-0.9947,-0.9946,-0.9891,-0.9891,-0.9891,-0.9891,-0.977,-0.9766,-0.9762,0,0,0,0,0,0,0,0,0,0,0,0,0,-1.0143,-1.0229,-1.0064,-1.002,-1.0015,-0.9949,-0.9947,-0.9945,-0.9891,-0.9891,-0.9891,-0.9891,-0.9771,-0.9766,-0.9761,-0.973,0,0,-0.9746,-0.9744,0,0,0,0,0,0,0,0,-1.0148,-1.0137,-1.0028,-1.0023,-1.0017,-0.9934,-0.9962,-0.9873,-0.9891,-0.9938,-0.9891,-0.9891,-0.9823,-0.9814,-0.9792,-0.9724,-0.9719,-0.9746,-0.9743,-0.9741,-0.9739,0,0,0,0,0,0,0,-1.0154,-1.0141,-1.0018,-1.0027,-1.002,-1.0005,-0.9992,-0.9945,-0.9881,-0.9934,-0.9929,-0.9917,-0.982,-0.9797,-0.9789,-0.9717,-0.9746,-0.9742,-0.9739,-0.9737,-0.9616,-0.9616,0,0,0,0,0,0,-1.0168,-1.0147,-1.0022,-1.0015,-1.0084,-1.0002,-0.9988,-0.9961,-0.9882,-0.987,-0.9917,-0.9915,-0.9806,-0.9795,-0.9785,-0.9742,-0.9741,-0.9736,-0.9733,-0.9617,-0.9616,-0.9616,0,0,0,0,0,0,-1.0172,-1.0158,-1.0027,-1.008,-1.0062,-0.9999,-0.9969,-0.9958,-0.9935,-0.9869,-0.9857,-0.9905,-0.9805,-0.9791,-0.9744,-0.9737,-0.9734,-0.9729,-0.9617,-0.9617,-0.9616,-0.9657,0,0,0,0,0,0,-1.0177,-1.0159,-1.0147,-1.008,-1.0059,-0.9989,-0.9969,-0.9956,-0.9927,-0.9923,-0.9855,-0.9843,-0.9804,-0.9752,-0.9739,-0.973,-0.9726,-0.9617,-0.9617,-0.9616,-0.9656,-0.9658,-0.966,0,0,0,0,0,-1.0183,-1.0163,-1.0147,-1.0132,-1.0043,-0.9989,-0.9977,-0.9933,-0.9927,-0.9914,-0.9872,-0.9846,-0.974,-0.9747,-0.9733,-0.9722,-0.9617,-0.9617,-0.9616,-0.9655,-0.9658,-0.966,0,0,0,0,0,0,-1.0229,-1.0153,-1.0135,-1.0092,-1.0048,-0.998,-0.9962,-0.9937,-0.9893,-0.9891,-0.9837,-0.9822,-0.978,-0.9746,-0.9755,-0.9687,-0.9676,-0.9673,-0.9711,-0.9713,-0.9715,-0.9723,-0.9721,0,0,0,0,0,-1.0235,-1.0198,-1.0133,-1.0101,-1.008,-1.0025,-1.0,-0.997,-0.9921,-0.9902,-0.9856,-0.9809,-0.9765,-0.9737,-0.9693,-0.9651,-0.9635,-0.9637,-0.9639,-0.9641,-0.9638,-0.9614,-0.9614,-0.9614,-0.9614,-0.9614,0,0,-1.0245,-1.0198,-1.0178,-1.0109,-1.0071,-1.0034,-1.0009,-0.997,-0.9942,-0.9895,-0.9848,-0.9813,-0.9757,-0.9712,-0.969,-0.9683,-0.9635,-0.964,-0.9642,-0.9638,-0.9613,-0.9613,-0.9613,-0.9614,-0.9614,-0.9614,0,0,-1.0244,-1.0206,-1.0175,-1.0138,-1.0082,-1.0045,-1.0038,-0.9974,-0.995,-0.9902,-0.9867,-0.9831,-0.9757,-0.9718,-0.9689,-0.9675,-0.9649,-0.9662,-0.9672,-0.9649,-0.9648,-0.9648,-0.9643,-0.9642,-0.9659,-0.966,-0.966,0,-1.0263,-1.0206,-1.0162,-1.0125,-1.0096,-1.0054,-1.0022,-0.9988,-0.992,-0.99,-0.9893,-0.9799,-0.9758,-0.9704,-0.9701,-0.9679,-0.9668,-0.9669,-0.9652,-0.9651,-0.965,-0.9645,-0.9643,-0.9661,-0.9661,-0.9661,-0.9661,0,-1.0232,-1.0194,-1.0176,-1.0113,-1.0081,-1.0047,-0.9997,-0.997,-0.9943,-0.9908,-0.9859,-0.9809,-0.9754,-0.9739,-0.9712,-0.9681,-0.9679,-0.9663,-0.965,-0.9653,-0.9647,-0.9644,-0.9664,-0.9664,-0.9663,-0.9662,0,0,-1.0256,-1.017,-1.0164,-1.0135,-1.0071,-1.0039,-1.0003,-0.9951,-0.9929,-0.9884,-0.9851,-0.979,-0.9775,-0.9742,-0.9711,-0.969,-0.9682,-0.9677,-0.9675,-0.9679,-0.9645,-0.9657,-0.9656,-0.9665,-0.9665,-0.9664,-0.965,0,-1.0246,-1.0181,-1.0141,-1.0092,-1.0055,-1.0015,-0.9984,-0.994,-0.9906,-0.9869,-0.9831,-0.9788,-0.9772,-0.9752,-0.973,-0.9688,-0.9675,-0.9689,-0.9634,-0.9633,-0.9649,-0.9652,-0.9665,-0.9653,-0.9647,-0.9647,-0.9646,0,-1.0225,-1.0183,-1.0131,-1.0071,-1.0054,-1.0026,-0.9976,-0.9941,-0.9891,-0.9867,-0.9831,-0.98,-0.9759,-0.9751,-0.9694,-0.9705,-0.968,-0.9656,-0.9655,-0.9647,-0.9639,-0.9645,-0.9648,-0.9647,-0.9642,-0.9642,-0.9643,0,-1.0248,-1.0177,-1.0137,-1.0113,-1.0043,-1.0024,-0.9994,-0.9944,-0.9915,-0.987,-0.9851,-0.9802,-0.9775,-0.9737,-0.9693,-0.9691,-0.964,-0.9628,-0.9619,-0.962,-0.9609,-0.961,-0.9609,-0.9594,-0.9594,-0.9595,-0.9595,0,-1.0241,-1.021,-1.0146,-1.0121,-1.0086,-1.004,-1.0005,-0.9971,-0.9927,-0.9894,-0.9856,-0.9826,-0.977,-0.9732,-0.9697,-0.9655,-0.9643,-0.9623,-0.9614,-0.9626,-0.9628,-0.9608,-0.9608,-0.9594,-0.9594,-0.9594,-0.9594,0,-1.0259,-1.0215,-1.0169,-1.0106,-1.009,-1.0067,-1.0012,-0.9986,-0.9951,-0.991,-0.9897,-0.9841,-0.9795,-0.9747,-0.9684,-0.9661,-0.962,-0.9608,-0.9638,-0.9632,-0.9625,-0.9627,-0.961,-0.9606,-0.9595,-0.9596,-0.9596,0,-1.0257,-1.0233,-1.0169,-1.0145,-1.0116,-1.0077,-1.0049,-1.0002,-0.9973,-0.9915,-0.9896,-0.9847,-0.9806,-0.9734,-0.9687,-0.9639,-0.9625,-0.9622,-0.9617,-0.963,-0.9624,-0.9626,-0.9623,-0.9624,-0.9625,-0.9625,-0.9625,0,-1.0259,-1.0238,-1.0199,-1.0153,-1.012,-1.0081,-1.004,-1.0022,-0.9967,-0.9937,-0.989,-0.9858,-0.9795,-0.9747,-0.9694,-0.9661,-0.9633,-0.9627,-0.9623,-0.9634,-0.9653,-0.9643,-0.9642,-0.9628,-0.9627,-0.9627,-0.9627,-0.9627,-1.0266,-1.0243,-1.0195,-1.0152,-1.0117,-1.008,-1.0053,-1.0015,-0.9976,-0.9922,-0.9896,-0.985,-0.98,-0.9725,-0.9693,-0.9655,-0.9647,-0.964,-0.9638,-0.9637,-0.964,-0.966,-0.9645,-0.9645,-0.9645,-0.9645,-0.9645,0,-1.0265,-1.0233,-1.0194,-1.0139,-1.0106,-1.0085,-1.0039,-1.0012,-0.9972,-0.9929,-0.989,-0.9836,-0.979,-0.9739,-0.969,-0.9669,-0.9655,-0.9658,-0.9658,-0.9651,-0.965,-0.9659,-0.967,-0.967,-0.967,-0.967,-0.967,-0.967,-1.0261,-1.0221,-1.0195,-1.0137,-1.0104,-1.0059,-1.0035,-1.0,-0.9966,-0.9908,-0.987,-0.9838,-0.9792,-0.9739,-0.9695,-0.9681,-0.9665,-0.9671,-0.9653,-0.9653,-0.9651,-0.9649,-0.9658,-0.9667,-0.9667,-0.9657,-0.9657,-0.9657]},{"header":{"parameterUnit":"m.s-1","parameterCategory":1,"la1":30.2991,"la2":30.254,"lo1":-89.0895,"lo2":-89.0444,"dy":0.0017,"dx":0.0017,"nx":28,"ny":28,"refTime":"2023-09-25T03:00:00:Z","depth":0,"parameterNumber":3,"parameterNumberName":"V-component_of_WINDS"},"data":[0,0,0,0,0,0,0,0,0,0,0,0,0,0,0,0,0,0,0,0,0,0,0,0,0,0,0,0,0,0,0,0,0,0,0,0,0,0,0,0,0,0,0,0,0,0,0,0,0,0,0,0,0,0,0,0,0,0,-1.3922,-1.3922,0,-1.3891,-1.3891,-1.3891,-1.3857,-1.3856,-1.3856,-1.3855,-1.3822,-1.3822,-1.3821,0,0,0,0,0,0,0,0,0,0,0,0,0,-1.395,-1.395,-1.3922,-1.3922,-1.3921,-1.3892,-1.3891,-1.3891,-1.3857,-1.3856,-1.3855,-1.3855,-1.3822,-1.3822,-1.3821,0,0,0,0,0,0,0,0,0,0,0,0,0,-1.3931,-1.395,-1.3922,-1.3901,-1.3899,-1.3892,-1.3891,-1.3891,-1.3857,-1.3856,-1.3855,-1.3855,-1.3822,-1.3822,-1.3821,-1.3832,0,0,-1.3819,-1.3819,0,0,0,0,0,0,0,0,-1.3932,-1.393,-1.3904,-1.3902,-1.39,-1.3877,-1.3889,-1.3871,-1.3857,-1.3873,-1.3855,-1.3854,-1.3841,-1.3839,-1.3834,-1.3831,-1.3829,-1.3819,-1.3819,-1.3818,-1.3818,0,0,0,0,0,0,0,-1.3933,-1.3931,-1.391,-1.3904,-1.3901,-1.3893,-1.3889,-1.3885,-1.3861,-1.3871,-1.3869,-1.3866,-1.3839,-1.3835,-1.3833,-1.3829,-1.3819,-1.3819,-1.3818,-1.3818,-1.3835,-1.3836,0,0,0,0,0,0,-1.3938,-1.3932,-1.3911,-1.3909,-1.3914,-1.3893,-1.3889,-1.3885,-1.3861,-1.3857,-1.3866,-1.3864,-1.3837,-1.3834,-1.3832,-1.3845,-1.3818,-1.3818,-1.3818,-1.3834,-1.3835,-1.3836,0,0,0,0,0,0,-1.3939,-1.3936,-1.3912,-1.392,-1.3916,-1.3893,-1.3889,-1.3885,-1.3881,-1.3857,-1.3853,-1.3866,-1.3836,-1.3833,-1.3833,-1.3844,-1.3818,-1.3817,-1.3833,-1.3834,-1.3835,-1.3871,0,0,0,0,0,0,-1.394,-1.3937,-1.3941,-1.392,-1.3916,-1.3914,-1.389,-1.3885,-1.388,-1.3877,-1.3856,-1.3852,-1.3835,-1.3834,-1.3832,-1.3842,-1.3817,-1.3832,-1.3833,-1.3835,-1.3869,-1.3873,-1.3877,0,0,0,0,0,-1.3941,-1.3951,-1.3941,-1.3939,-1.392,-1.3914,-1.3912,-1.3892,-1.3881,-1.3885,-1.387,-1.3853,-1.3843,-1.3835,-1.3832,-1.3842,-1.3831,-1.3833,-1.3835,-1.3867,-1.3873,-1.3877,0,0,0,0,0,0,-1.3972,-1.3948,-1.3937,-1.3941,-1.393,-1.3909,-1.3913,-1.3898,-1.389,-1.3888,-1.3863,-1.3859,-1.3863,-1.3852,-1.3843,-1.3853,-1.3835,-1.3836,-1.386,-1.3865,-1.3869,-1.3872,-1.3816,0,0,0,0,0,-1.398,-1.3978,-1.3956,-1.3962,-1.3957,-1.3936,-1.3933,-1.3919,-1.3907,-1.3902,-1.3887,-1.3875,-1.387,-1.3866,-1.386,-1.3867,-1.3863,-1.3873,-1.3877,-1.388,-1.3882,-1.3888,-1.3893,-1.3842,-1.3842,-1.3842,0,0,-1.3995,-1.3982,-1.3981,-1.3968,-1.3958,-1.3956,-1.3932,-1.3931,-1.393,-1.3901,-1.3901,-1.389,-1.3875,-1.388,-1.3881,-1.3871,-1.3896,-1.3883,-1.3886,-1.3886,-1.389,-1.3895,-1.3899,-1.3843,-1.3843,-1.3843,0,0,-1.4023,-1.4012,-1.4017,-1.4008,-1.3994,-1.398,-1.3981,-1.3962,-1.3954,-1.3954,-1.3933,-1.3931,-1.3921,-1.3912,-1.3907,-1.3933,-1.3918,-1.3931,-1.3954,-1.3959,-1.3963,-1.3967,-1.3978,-1.3983,-1.3933,-1.3933,-1.3933,0,-1.4044,-1.4041,-1.402,-1.4021,-1.4017,-1.3992,-1.3997,-1.3989,-1.3973,-1.397,-1.396,-1.3949,-1.3937,-1.394,-1.3947,-1.3942,-1.3944,-1.3934,-1.3964,-1.3968,-1.3971,-1.3981,-1.3986,-1.3935,-1.3935,-1.3935,-1.3935,0,-1.4068,-1.4067,-1.4072,-1.4059,-1.4055,-1.4057,-1.4038,-1.4036,-1.4023,-1.401,-1.4011,-1.3997,-1.3988,-1.3987,-1.3973,-1.3989,-1.3984,-1.3969,-1.395,-1.3978,-1.3988,-1.3991,-1.3938,-1.3937,-1.3937,-1.3936,0,0,-1.4115,-1.4092,-1.4094,-1.4089,-1.4073,-1.4071,-1.4073,-1.4065,-1.4065,-1.4055,-1.4057,-1.405,-1.4037,-1.4031,-1.4016,-1.4021,-1.4046,-1.4006,-1.4005,-1.4016,-1.4064,-1.4077,-1.4082,-1.4035,-1.4035,-1.4036,-1.4066,0,-1.4141,-1.4144,-1.4127,-1.4135,-1.4134,-1.4111,-1.4113,-1.4103,-1.4092,-1.409,-1.4077,-1.4073,-1.4055,-1.4052,-1.4055,-1.4042,-1.4055,-1.4039,-1.4038,-1.4038,-1.4044,-1.4087,-1.4099,-1.4129,-1.407,-1.407,-1.4071,0,-1.4172,-1.4166,-1.4174,-1.4159,-1.4158,-1.416,-1.4153,-1.4151,-1.414,-1.4131,-1.4125,-1.4109,-1.411,-1.4092,-1.4095,-1.4084,-1.4082,-1.4076,-1.4076,-1.4077,-1.4057,-1.409,-1.4137,-1.4143,-1.4076,-1.4076,-1.4075,0,-1.4208,-1.4201,-1.4206,-1.4202,-1.4184,-1.4186,-1.4179,-1.4167,-1.4164,-1.4157,-1.4156,-1.4149,-1.4146,-1.4141,-1.4123,-1.4111,-1.4129,-1.4108,-1.4123,-1.4124,-1.4129,-1.4129,-1.4179,-1.4125,-1.4125,-1.4125,-1.4124,0,-1.424,-1.4246,-1.4222,-1.4225,-1.4232,-1.4212,-1.422,-1.421,-1.42,-1.4201,-1.418,-1.4181,-1.4157,-1.4156,-1.4143,-1.4148,-1.4146,-1.414,-1.4137,-1.4143,-1.4144,-1.4143,-1.4141,-1.4126,-1.4125,-1.4125,-1.4125,0,-1.4281,-1.4265,-1.4269,-1.4253,-1.4249,-1.4255,-1.4241,-1.4243,-1.4231,-1.4233,-1.4232,-1.4213,-1.4211,-1.4193,-1.4186,-1.4177,-1.4189,-1.418,-1.4193,-1.4191,-1.4208,-1.4207,-1.4259,-1.4266,-1.4206,-1.4207,-1.4207,0,-1.4304,-1.4308,-1.4293,-1.4293,-1.4287,-1.4286,-1.4284,-1.4265,-1.4263,-1.4252,-1.4256,-1.4253,-1.4249,-1.4247,-1.4233,-1.4228,-1.422,-1.4239,-1.422,-1.4227,-1.4223,-1.4224,-1.4226,-1.4244,-1.4244,-1.4245,-1.4246,0,-1.4346,-1.4338,-1.4336,-1.4332,-1.433,-1.4325,-1.4319,-1.432,-1.4299,-1.4298,-1.4296,-1.4294,-1.4288,-1.4286,-1.4279,-1.4271,-1.4256,-1.4252,-1.4255,-1.4263,-1.4271,-1.4269,-1.4207,-1.4251,-1.425,-1.425,-1.425,-1.4249,-1.438,-1.4384,-1.4375,-1.4373,-1.4367,-1.4363,-1.4365,-1.4354,-1.4352,-1.4347,-1.4335,-1.4336,-1.4327,-1.4316,-1.431,-1.4311,-1.4301,-1.4305,-1.4307,-1.4309,-1.4313,-1.427,-1.4309,-1.4309,-1.4309,-1.4308,-1.4308,0,-1.4423,-1.4416,-1.4415,-1.4409,-1.4408,-1.4394,-1.4387,-1.4387,-1.4389,-1.4381,-1.4379,-1.4378,-1.4376,-1.4362,-1.4358,-1.4362,-1.4354,-1.4361,-1.4362,-1.4361,-1.4321,-1.4319,-1.4367,-1.4367,-1.4367,-1.4367,-1.4367,-1.4367,-1.4445,-1.4453,-1.4444,-1.4449,-1.4441,-1.4443,-1.4441,-1.4437,-1.4431,-1.4432,-1.443,-1.4421,-1.4412,-1.4408,-1.4405,-1.4401,-1.4402,-1.4412,-1.4406,-1.4369,-1.4363,-1.4358,-1.4356,-1.4412,-1.4412,-1.4446,-1.4446,-1.4446]}]]